When you browse on this site, cookies collect data to enhance your experience and personalize the content and advertising you see.
Visit our Privacy Policy to learn more. By continuing to use the site, you agree to this use of cookies and data.
  • In Spain
  • List of Countries
  • For 7 days
  • Water Temperature
  • Satellite Maps
  • Weather Map
  • Weather Widgets
  • user-avatar
    Login

    Hourly Weather Canberra

    Today, 21 July, Sunday

    Time Temperature Precipitation Wind Pressure Humidity
    00:00 +4°C° 0 mm 1 mps 709 mmHg 89%
    01:00 +4°C° 0 mm 1 mps 709 mmHg 89%
    02:00 +4°C° 0 mm 1 mps 708 mmHg 90%
    03:00 +4°C° 0 mm 1 mps 708 mmHg 90%
    04:00 +4°C° 0 mm 1 mps 708 mmHg 90%
    05:00 +4°C° 0 mm 1 mps 708 mmHg 91%
    06:00 +4°C° 0 mm 1 mps 708 mmHg 91%
    07:00 +2°C° 0 mm 2 mps 708 mmHg 92%
    08:00 +4°C° 0 mm 3 mps 708 mmHg 83%
    09:00 +6°C° 0 mm 4 mps 708 mmHg 74%
    10:00 +9°C° 0 mm 5 mps 708 mmHg 65%
    11:00 +10°C° 0 mm 5 mps 707 mmHg 59%
    12:00 +11°C° 0 mm 6 mps 707 mmHg 54%
    13:00 +14°C° 0 mm 7 mps 707 mmHg 48%
    14:00 +13°C° 0 mm 6 mps 706 mmHg 51%
    15:00 +13°C° 0 mm 6 mps 706 mmHg 54%
    16:00 +12°C° 0 mm 5 mps 706 mmHg 58%
    17:00 +11°C° 0 mm 4 mps 706 mmHg 66%
    18:00 +8°C° 0 mm 4 mps 707 mmHg 74%
    19:00 +7°C° 0 mm 3 mps 707 mmHg 83%
    20:00 +7°C° 0 mm 3 mps 707 mmHg 83%
    21:00 +7°C° 0 mm 3 mps 708 mmHg 84%
    22:00 +5°C° 0 mm 3 mps 708 mmHg 85%
    23:00 +6°C° 0 mm 2 mps 708 mmHg 85%

    Tomorrow, 22 July, Monday

    Time Temperature Precipitation Wind Pressure Humidity
    00:00 +6°C° 0 mm 2 mps 708 mmHg 86%
    01:00 +6°C° 0 mm 1 mps 708 mmHg 86%
    02:00 +6°C° 0 mm 1 mps 708 mmHg 88%
    03:00 +5°C° 0 mm 1 mps 708 mmHg 90%
    04:00 +5°C° 0 mm 1 mps 708 mmHg 91%
    05:00 +4°C° 0 mm 1 mps 708 mmHg 92%
    06:00 +4°C° 0 mm 1 mps 708 mmHg 92%
    07:00 +4°C° 0 mm 1 mps 709 mmHg 93%
    08:00 +6°C° 0 mm 1 mps 709 mmHg 85%
    09:00 +8°C° 0 mm 1 mps 709 mmHg 77%
    10:00 +9°C° 0 mm 2 mps 709 mmHg 68%
    11:00 +11°C° 0 mm 3 mps 709 mmHg 62%
    12:00 +12°C° 0 mm 4 mps 708 mmHg 56%
    13:00 +14°C° 0 mm 4 mps 708 mmHg 50%
    14:00 +13°C° 0 mm 4 mps 708 mmHg 53%
    15:00 +13°C° 0 mm 4 mps 707 mmHg 55%
    16:00 +12°C° 0 mm 4 mps 707 mmHg 58%
    17:00 +10°C° 0 mm 3 mps 707 mmHg 68%
    18:00 +8°C° 0 mm 3 mps 707 mmHg 79%
    19:00 +6°C° 0 mm 2 mps 707 mmHg 89%
    20:00 +6°C° 0 mm 2 mps 707 mmHg 90%
    21:00 +5°C° 0 mm 2 mps 708 mmHg 90%
    22:00 +5°C° 0 mm 2 mps 708 mmHg 91%
    23:00 +5°C° 0 mm 2 mps 708 mmHg 91%

    Day after tomorrow, 23 July, Tuesday

    Time Temperature Precipitation Wind Pressure Humidity
    00:00 +4°C° 0 mm 2 mps 707 mmHg 92%
    01:00 +4°C° 0 mm 2 mps 707 mmHg 92%
    02:00 +4°C° 0 mm 2 mps 707 mmHg 93%
    03:00 +4°C° 0 mm 2 mps 707 mmHg 93%
    04:00 +3°C° 0 mm 2 mps 707 mmHg 94%
    05:00 +3°C° 0 mm 2 mps 707 mmHg 93%
    06:00 +2°C° 0 mm 3 mps 707 mmHg 93%
    07:00 +2°C° 0 mm 3 mps 707 mmHg 93%
    08:00 +3°C° 0 mm 5 mps 707 mmHg 81%
    09:00 +5°C° 0 mm 6 mps 707 mmHg 69%
    10:00 +9°C° 0 mm 8 mps 708 mmHg 57%
    11:00 +10°C° 0 mm 8 mps 707 mmHg 56%
    12:00 +11°C° 0 mm 9 mps 707 mmHg 55%
    13:00 +11°C° 0 mm 9 mps 707 mmHg 55%
    14:00 +10°C° 0 mm 8 mps 707 mmHg 60%
    15:00 +9°C° 0 mm 8 mps 707 mmHg 65%
    16:00 +8°C° 0 mm 7 mps 707 mmHg 70%
    17:00 +7°C° 0 mm 6 mps 707 mmHg 75%
    18:00 +5°C° 0 mm 6 mps 707 mmHg 81%
    19:00 +4°C° 0 mm 6 mps 708 mmHg 86%
    20:00 +4°C° 0 mm 6 mps 708 mmHg 84%
    21:00 +4°C° 0 mm 6 mps 708 mmHg 82%
    22:00 +4°C° 0 mm 6 mps 709 mmHg 79%
    23:00 +4°C° 0 mm 6 mps 708 mmHg 78%

    24 July, Wednesday

    Time Temperature Precipitation Wind Pressure Humidity
    00:00 +4°C° 0 mm 6 mps 708 mmHg 77%
    01:00 +4°C° 0 mm 6 mps 708 mmHg 76%
    02:00 +4°C° 0 mm 6 mps 708 mmHg 76%
    03:00 +4°C° 0 mm 6 mps 708 mmHg 77%
    04:00 +4°C° 0 mm 6 mps 708 mmHg 78%
    05:00 +5°C° 0 mm 5 mps 708 mmHg 80%
    06:00 +4°C° 0 mm 4 mps 709 mmHg 82%
    07:00 +3°C° 0 mm 4 mps 709 mmHg 83%
    08:00 +4°C° 0 mm 4 mps 710 mmHg 74%
    09:00 +7°C° 0 mm 3 mps 711 mmHg 65%
    10:00 +8°C° 0 mm 3 mps 712 mmHg 56%
    11:00 +9°C° 0 mm 3 mps 712 mmHg 52%
    12:00 +10°C° 0 mm 3 mps 712 mmHg 47%
    13:00 +11°C° 0 mm 3 mps 712 mmHg 43%
    14:00 +11°C° 0 mm 3 mps 712 mmHg 46%
    15:00 +10°C° 0 mm 3 mps 712 mmHg 50%
    16:00 +10°C° 0 mm 4 mps 711 mmHg 54%
    17:00 +8°C° 0 mm 3 mps 712 mmHg 64%
    18:00 +5°C° 0 mm 2 mps 712 mmHg 75%
    19:00 +4°C° 0 mm 1 mps 713 mmHg 86%
    20:00 +4°C° 0 mm 1 mps 713 mmHg 87%
    21:00 +3°C° 0 mm 1 mps 714 mmHg 88%
    22:00 +2°C° 0 mm 0 mps 714 mmHg 89%
    23:00 +1°C° 0 mm 0 mps 714 mmHg 90%

    25 July, Thursday

    Time Temperature Precipitation Wind Pressure Humidity
    00:00 +1°C° 0 mm 0 mps 714 mmHg 90%
    01:00 +1°C° 0 mm 0 mps 713 mmHg 90%
    02:00 0°C° 0 mm 0 mps 713 mmHg 90%
    03:00 0°C° 0 mm 0 mps 713 mmHg 90%
    04:00 0°C° 0 mm 0 mps 713 mmHg 90%
    05:00 0°C° 0 mm 0 mps 713 mmHg 90%
    06:00 -1°C° 0 mm 0 mps 714 mmHg 90%
    07:00 -1°C° 0 mm 0 mps 714 mmHg 90%
    08:00 +2°C° 0 mm 0 mps 714 mmHg 80%
    09:00 +5°C° 0 mm 0 mps 714 mmHg 69%
    10:00 +9°C° 0 mm 1 mps 715 mmHg 59%
    11:00 +10°C° 0 mm 1 mps 714 mmHg 56%
    12:00 +10°C° 0 mm 2 mps 713 mmHg 53%
    13:00 +12°C° 0 mm 2 mps 713 mmHg 50%
    14:00 +12°C° 0 mm 2 mps 712 mmHg 55%
    15:00 +10°C° 0 mm 2 mps 712 mmHg 60%
    16:00 +10°C° 0 mm 2 mps 712 mmHg 64%
    17:00 +8°C° 0 mm 2 mps 712 mmHg 75%
    18:00 +6°C° 0 mm 2 mps 712 mmHg 85%
    19:00 +5°C° 0 mm 1 mps 713 mmHg 95%
    20:00 +4°C° 0 mm 1 mps 713 mmHg 95%
    21:00 +4°C° 0 mm 1 mps 713 mmHg 96%
    22:00 +3°C° 0 mm 1 mps 713 mmHg 96%
    23:00 +3°C° 0 mm 1 mps 712 mmHg 96%

    26 July, Friday

    Time Temperature Precipitation Wind Pressure Humidity
    00:00 +3°C° 0 mm 1 mps 712 mmHg 95%
    01:00 +2°C° 0 mm 1 mps 712 mmHg 95%
    02:00 +2°C° 0 mm 1 mps 711 mmHg 95%
    03:00 +2°C° 0 mm 1 mps 711 mmHg 95%
    04:00 +2°C° 0 mm 1 mps 711 mmHg 94%
    05:00 +1°C° 0 mm 1 mps 711 mmHg 94%
    06:00 +1°C° 0 mm 1 mps 711 mmHg 94%
    07:00 0°C° 0 mm 1 mps 711 mmHg 95%
    08:00 +3°C° 0 mm 1 mps 711 mmHg 86%
    09:00 +5°C° 0 mm 1 mps 712 mmHg 78%
    10:00 +6°C° 0 mm 2 mps 712 mmHg 70%
    11:00 +8°C° 0 mm 2 mps 712 mmHg 64%
    12:00 +10°C° 0 mm 2 mps 712 mmHg 59%
    13:00 +13°C° 0 mm 2 mps 711 mmHg 54%
    14:00 +13°C° 0 mm 2 mps 711 mmHg 56%
    15:00 +12°C° 0 mm 2 mps 711 mmHg 59%
    16:00 +11°C° 0 mm 3 mps 711 mmHg 61%
    17:00 +9°C° 0 mm 2 mps 712 mmHg 70%
    18:00 +7°C° 0 mm 2 mps 712 mmHg 79%
    19:00 +5°C° 0 mm 2 mps 712 mmHg 88%
    20:00 +6°C° 0 mm 1 mps 712 mmHg 90%
    21:00 +5°C° 0 mm 1 mps 712 mmHg 91%
    22:00 +5°C° 0 mm 1 mps 712 mmHg 93%
    23:00 +5°C° 0 mm 1 mps 712 mmHg 93%
    Show more